Temperature
12 12 13 13 13 13 14 14 14 14 14 14 14 15 15 15 15 15 15 15 15 15 15 15 15 15 15 15 15 15 15 15 15 15 15 15 15 14 14 14 14 14 14
12 12 12 13 13 13 13 14 14 14 14 14 14 14 14 14 14 14 14 14 15 14 14 15 15 15 15 14 14 14 14 15 14 14 14 14 14 14 14 14 14 14 14
12 12 12 12 13 13 13 13 13 14 14 14 14 14 14 14 14 14 14 14 14 14 14 14 14 14 14 14 14 14 14 14 14 14 14 14 14 14 14 14 14 14 14
12 12 12 12 12 13 13 13 13 13 13 13 13 14 14 14 14 14 14 14 14 14 14 14 14 14 14 14 14 14 14 14 14 14 14 14 14 14 14 14 14 14 13
11 11 12 12 12 12 12 12 13 13 13 13 13 13 13 14 14 14 14 14 14 14 14 14 14 14 14 14 14 14 14 14 14 14 13 13 13 13 14 14 13 13 13
11 11 11 12 12 12 12 12 12 12 13 13 13 13 13 13 13 13 13 13 13 13 14 14 14 14 14 14 13 13 13 13 13 13 13 13 13 13 13 13 13 13 13
11 11 11 11 11 11 12 12 12 12 12 12 12 12 13 13 13 13 13 13 13 13 13 13 13 13 13 13 13 13 13 13 13 13 13 13 13 13 13 13 13 12 12
10 10 10 11 11 11 11 11 11 11 12 12 12 12 12 12 13 13 13 13 12 13 13 13 13 13 13 13 13 13 13 13 13 13 12 12 12 12 12 12 12 12 12
9 10 10 10 10 10 11 11 11 11 11 11 12 12 12 12 12 12 12 12 12 12 12 12 13 13 12 12 12 13 13 12 12 12 12 12 12 12 12 12 12 12 12
9 9 9 9 9 10 10 10 10 10 11 11 11 11 12 12 12 12 12 12 12 12 12 12 12 12 12 12 12 12 12 12 12 12 12 12 12 12 12 12 12 12 12
9 8 9 9 9 9 9 9 10 10 10 10 11 11 11 11 12 12 12 12 12 12 12 12 12 12 12 12 12 12 12 12 12 12 12 11 11 11 11 11 11 11 11
8 8 8 8 8 9 9 9 9 9 9 10 10 10 11 11 11 11 11 11 11 11 12 12 12 12 12 12 11 11 12 11 11 12 11 11 11 11 11 11 11 11 11
7 7 7 8 8 8 8 8 8 8 9 9 9 10 10 10 10 11 11 11 11 11 11 11 11 11 11 11 11 11 11 11 11 11 11 11 11 11 11 11 11 11 11
7 7 7 7 7 7 8 8 8 8 8 8 9 9 9 10 10 10 10 10 10 11 11 11 11 11 11 11 11 11 11 11 11 11 11 11 11 11 11 11 11 11 11
6 6 6 7 7 7 7 7 7 7 8 8 8 8 9 9 9 9 10 10 10 10 10 10 10 10 11 10 10 10 10 10 10 10 10 10 11 10 11 10 10 10 10
6 6 6 6 6 6 6 7 7 7 7 7 7 8 8 8 9 9 9 9 9 10 10 10 10 10 10 10 10 10 10 10 10 10 10 10 10 10 10 10 10 10 10
5 5 5 5 5 6 6 6 6 6 6 7 7 7 7 8 8 8 8 9 9 9 9 9 9 9 9 10 9 9 9 9 9 9 10 10 10 10 10 10 10 10 10
5 5 4 4 5 5 5 5 5 6 6 6 6 6 7 7 7 7 8 8 8 8 9 9 9 9 9 9 9 9 9 9 9 9 9 9 9 9 9 9 9 9 9
4 4 4 4 4 4 4 5 5 5 5 5 6 6 6 6 7 7 7 7 8 8 8 8 8 8 8 8 8 8 8 8 8 8 9 9 9 9 9 9 9 9 9
4 4 3 3 3 3 4 4 4 4 5 5 5 5 5 6 6 6 6 7 7 7 7 7 8 8 8 8 8 8 8 8 8 8 8 8 8 8 8 8 9 9 8
3 3 3 3 3 3 3 3 3 4 4 4 4 5 5 5 5 6 6 6 7 7 7 7 7 7 7 7 7 7 7 7 7 7 7 8 8 8 8 8 8 8 8
3 3 2 2 2 2 3 3 3 3 3 3 4 4 4 4 5 5 5 6 6 6 6 6 6 6 7 7 7 6 6 6 7 7 7 7 7 7 7 7 7 8 8
2 2 2 2 2 2 2 2 2 2 3 3 3 3 4 4 4 4 5 5 5 5 6 6 6 6 6 6 6 6 6 6 6 6 6 6 7 7 7 7 7 7 7
2 2 2 2 2 2 2 2 2 2 2 2 3 3 3 3 4 4 4 4 4 5 5 5 5 5 5 5 6 6 6 6 5 5 6 6 6 6 6 6 6 6 7
2 1 1 1 1 1 1 1 1 1 2 2 2 2 3 3 3 3 4 4 4 4 4 4 5 5 5 5 5 5 5 5 5 5 5 5 5 6 6 6 6 6 6
1 1 1 1 1 1 1 1 1 1 1 2 2 2 2 2 3 3 3 3 3 4 4 4 4 4 4 4 4 5 5 5 5 5 5 5 5 5 5 5 5 5 6
Wind_Speed
2 4 4 6 7 8 9 10 10 10 10 11 11 11 10 9 10 10 10 11 11 11 12 13 13 14 15 15 16 17 17 17 18 18 17 18 18 18 17 17 16 15 17
1 1 5 7 8 9 9 9 9 9 10 9 10 10 10 9 9 9 10 10 11 11 12 13 13 13 14 15 16 16 17 17 17 16 16 16 17 17 17 16 16 15 17
2 4 6 8 8 8 9 9 9 9 9 9 9 9 9 9 8 9 9 10 11 11 11 12 12 13 14 14 15 15 16 16 16 16 15 13 14 16 16 16 16 17 17
4 5 6 8 8 8 8 9 9 9 9 9 8 8 8 8 8 8 8 9 10 10 10 11 11 12 13 13 14 14 15 15 15 14 12 11 12 14 15 15 15 16 16
5 6 6 8 9 8 8 8 8 8 9 9 8 7 8 8 8 8 8 8 9 10 10 11 11 12 12 12 13 14 14 14 13 13 11 11 11 14 15 15 15 15 15
5 6 6 8 8 8 7 7 7 7 8 8 8 7 7 7 8 7 8 8 8 9 10 10 10 11 11 11 12 13 13 13 13 12 11 10 11 13 14 14 15 15 15
4 6 7 8 8 8 8 7 7 7 7 7 7 7 6 7 7 7 7 8 8 8 9 10 10 10 10 10 11 12 13 13 12 11 10 10 11 13 14 14 14 14 14
4 5 6 7 7 8 8 8 8 7 7 6 6 6 7 6 6 6 6 7 7 7 9 10 10 9 9 10 10 11 12 12 11 9 9 9 11 12 13 14 14 14 14
5 5 6 6 6 7 7 8 8 8 7 7 6 6 6 6 5 5 5 6 7 7 8 9 9 9 9 9 10 11 11 11 10 8 8 8 11 12 13 13 13 13 13
5 5 5 6 6 6 6 7 7 8 8 7 7 7 6 6 4 4 5 5 6 7 7 8 9 9 9 9 9 10 10 9 10 8 7 8 10 11 12 12 12 12 12
5 4 5 5 5 5 5 5 6 7 7 7 6 6 6 6 4 3 4 5 6 6 7 8 9 9 8 8 9 9 9 7 8 7 7 9 10 11 12 12 12 12 11
4 3 4 4 5 5 4 5 5 4 5 5 5 5 5 5 4 3 4 5 5 5 6 7 8 8 8 7 7 8 7 7 7 6 7 9 10 11 11 11 11 11 10
1 2 3 3 4 4 4 4 4 3 4 4 4 4 4 5 4 4 4 4 4 5 5 6 7 6 6 6 6 6 7 7 6 6 6 8 9 10 10 10 10 10 9
1 2 2 3 4 4 4 3 3 3 3 3 3 3 3 4 4 4 3 3 3 3 4 5 4 5 6 6 6 6 7 6 6 6 5 7 8 10 10 10 10 10 9
2 1 1 2 3 3 3 2 2 2 2 3 3 2 3 3 2 3 3 3 3 3 4 3 3 4 5 5 5 6 5 5 6 6 5 6 7 9 9 9 9 9 9
2 1 1 2 2 3 3 2 2 2 2 2 2 2 3 3 3 2 2 3 2 2 3 3 3 3 4 4 4 5 5 5 5 6 6 6 7 8 8 8 8 8 8
2 1 1 1 2 2 2 2 2 2 2 2 2 2 3 3 3 3 2 2 2 2 3 3 4 4 3 4 3 3 4 4 5 6 6 7 6 7 8 8 8 8 8
2 1 0 1 1 2 2 2 2 2 2 2 2 2 3 3 3 3 1 1 2 2 3 3 3 3 3 3 2 1 3 3 4 6 6 7 6 6 7 8 8 7 6
3 2 1 0 0 0 1 2 2 2 2 2 2 2 2 2 3 3 2 1 2 2 2 3 3 4 4 3 2 1 2 2 3 5 5 6 6 6 6 7 7 7 6
2 2 1 1 1 0 1 1 1 1 1 2 2 1 1 2 2 3 2 1 2 2 1 2 2 3 3 4 3 2 1 2 3 3 4 6 6 6 6 6 6 5 5
1 1 1 2 2 2 1 1 1 1 1 0 1 1 1 1 2 2 1 1 2 2 2 2 3 3 3 3 3 2 2 2 2 2 3 4 5 5 6 6 5 5 4
2 2 2 3 3 3 3 2 2 2 1 1 0 0 0 1 1 1 1 1 2 3 2 2 3 3 2 3 4 4 2 1 1 1 2 3 3 4 5 5 5 5 5
2 3 3 3 3 3 2 1 1 0 0 1 1 1 1 1 1 1 1 2 2 3 3 3 3 4 4 2 3 4 4 3 2 0 1 2 2 2 3 4 4 4 4
3 3 3 3 3 3 3 3 4 3 3 3 2 2 2 2 2 2 2 2 3 3 4 4 3 4 4 4 2 1 1 3 3 2 1 2 2 3 2 2 3 3 4
3 3 3 4 3 3 3 4 4 3 3 2 2 2 2 2 3 3 2 3 3 3 4 5 4 4 4 4 4 2 1 1 2 3 4 3 1 2 3 3 3 3 4
2 3 3 4 4 4 4 4 5 5 4 3 3 3 3 2 2 3 3 3 3 4 5 5 5 5 5 3 3 3 4 3 4 3 4 5 3 2 2 3 3 3 3
Wind_Direction
306 331 20 48 57 60 60 57 57 59 60 62 66 68 76 83 88 90 91 93 95 98 99 97 97 96 95 93 92 91 90 88 86 85 84 85 85 85 84 84 83 81 85
213 15 58 59 62 64 62 59 56 56 61 64 64 67 70 79 87 92 94 96 95 94 98 100 99 99 98 96 94 93 91 90 87 86 85 83 85 86 87 87 85 86 85
74 58 64 58 66 69 65 62 60 56 58 63 65 67 70 76 87 88 94 97 96 94 95 99 101 101 99 97 95 95 93 92 90 89 88 84 86 88 89 89 87 87 87
74 66 60 59 64 69 68 66 62 59 56 58 65 68 73 77 82 91 89 98 99 97 96 98 100 103 101 99 98 98 97 94 90 92 86 85 89 91 91 90 89 89 88
72 65 59 61 60 64 68 66 64 62 58 56 60 69 73 79 82 88 89 95 98 99 99 99 100 103 101 101 102 102 98 93 89 91 86 87 92 94 93 92 91 90 90
71 66 65 62 59 59 65 68 65 65 63 58 55 62 72 79 83 87 86 92 98 99 102 104 102 101 101 103 105 103 99 92 88 90 86 90 95 98 97 96 95 94 92
70 63 69 63 59 59 62 64 64 66 65 59 55 52 62 74 83 86 89 90 97 102 102 103 102 99 100 103 105 104 102 94 93 90 88 93 101 103 102 100 98 97 95
84 69 65 65 61 57 57 60 59 63 68 63 59 51 50 59 79 84 89 94 99 107 111 108 104 99 95 97 100 101 102 100 98 93 93 98 105 108 107 104 99 99 97
78 68 54 57 63 58 52 53 56 58 58 60 57 50 47 44 65 87 88 95 102 108 116 116 110 102 97 94 95 97 99 98 97 97 100 105 110 110 109 107 104 102 101
65 62 56 48 49 53 55 57 55 57 53 50 50 42 40 38 50 87 91 94 108 112 121 119 113 107 99 96 95 94 96 97 96 99 105 113 115 115 113 112 110 106 104
41 39 50 49 44 47 58 60 54 53 50 44 43 40 37 32 40 80 89 94 102 116 126 123 116 109 101 98 100 96 93 93 98 105 115 122 123 121 118 117 113 110 107
34 27 39 46 49 50 51 52 54 50 46 41 39 38 41 37 38 66 87 93 98 110 123 127 118 111 100 98 101 97 93 96 95 106 122 129 128 127 122 119 117 115 113
99 34 29 45 56 60 59 54 49 41 42 43 38 39 40 41 36 50 67 76 88 98 106 117 110 100 95 97 100 100 99 100 99 102 120 130 132 130 126 124 122 121 120
113 46 24 46 57 58 64 61 58 48 46 39 36 47 58 51 39 41 61 61 73 84 90 96 90 92 91 96 98 99 99 99 102 101 112 127 132 131 129 128 127 124 124
105 61 29 38 56 54 63 64 55 51 46 38 40 46 74 68 49 45 60 60 62 83 93 92 90 91 88 91 94 97 95 96 99 105 111 121 130 132 129 131 131 128 124
132 111 44 27 63 62 60 58 60 51 43 48 47 51 78 82 66 52 58 53 52 78 108 116 118 113 107 101 95 93 98 103 103 108 113 119 126 127 130 130 133 132 127
164 151 115 32 61 68 60 64 56 55 58 58 47 63 76 83 82 60 63 67 47 91 109 109 108 103 109 105 100 95 102 106 114 116 119 119 121 125 127 127 126 131 131
155 152 167 33 37 58 50 51 58 53 60 57 52 66 73 86 96 80 69 83 58 94 109 130 138 126 125 118 116 106 106 106 114 122 121 120 119 122 126 124 121 124 131
163 162 146 114 17 65 53 50 53 56 56 54 56 61 58 78 96 92 65 66 89 84 104 140 146 147 144 134 135 123 107 109 116 121 116 117 118 119 121 128 126 123 122
167 172 181 184 282 231 98 56 40 35 43 48 47 46 56 72 95 95 66 76 114 113 113 136 145 143 151 150 134 106 100 111 113 122 125 119 119 122 123 125 130 136 130
161 185 214 214 231 212 211 227 259 297 301 327 41 50 81 83 97 109 105 99 128 148 159 149 147 143 148 145 122 101 61 76 114 130 118 114 111 123 123 122 125 135 144
202 218 247 240 236 220 213 224 223 231 249 235 293 358 146 126 126 141 129 168 153 159 158 147 144 157 161 153 145 148 139 127 53 116 130 136 130 118 116 128 128 131 136
237 238 256 259 246 229 225 209 198 203 282 273 272 266 253 203 181 170 168 176 172 173 178 174 169 155 169 179 164 162 162 186 175 251 164 154 152 141 126 132 135 141 151
256 261 270 267 246 233 217 201 196 204 223 233 235 250 258 223 195 189 183 180 182 183 185 184 176 173 170 179 183 174 156 149 163 178 214 192 178 170 166 149 150 162 167
262 262 273 267 248 238 222 210 206 213 223 223 223 238 247 232 205 187 181 180 186 185 180 180 184 181 177 180 184 177 150 151 147 165 189 194 205 209 193 179 168 184 190
276 268 272 259 254 242 229 218 213 211 211 214 220 222 237 242 223 201 191 195 196 187 185 184 190 190 188 184 186 179 174 176 175 168 181 189 205 224 209 194 182 184 191
Height
1531 1532 1532 1533 1533 1534 1534 1534 1535 1535 1535 1535 1536 1536 1536 1536 1537 1537 1537 1537 1537 1538 1538 1538 1538 1538 1539 1539 1539 1540 1540 1540 1540 1540 1541 1541 1541 1541 1541 1541 1541 1541 1541
1530 1531 1532 1532 1532 1533 1533 1534 1534 1535 1535 1535 1536 1536 1536 1536 1537 1537 1538 1538 1538 1538 1538 1539 1539 1539 1540 1540 1540 1541 1541 1541 1542 1542 1542 1543 1543 1543 1543 1543 1543 1543 1543
1530 1531 1531 1532 1532 1532 1533 1533 1533 1534 1535 1535 1536 1536 1536 1536 1537 1537 1538 1538 1538 1539 1539 1539 1540 1540 1540 1541 1541 1542 1542 1542 1543 1543 1544 1544 1544 1544 1545 1545 1545 1545 1545
1529 1530 1530 1531 1531 1532 1532 1532 1533 1533 1534 1534 1535 1536 1536 1536 1537 1537 1538 1538 1539 1539 1539 1540 1540 1541 1541 1541 1542 1543 1543 1543 1544 1544 1545 1545 1546 1546 1546 1546 1546 1546 1546
1529 1529 1530 1530 1530 1531 1531 1532 1532 1532 1533 1534 1534 1535 1536 1536 1536 1537 1538 1538 1539 1539 1540 1540 1541 1541 1542 1542 1543 1543 1544 1544 1545 1545 1546 1546 1547 1547 1547 1547 1547 1547 1547
1528 1529 1529 1529 1530 1530 1530 1530 1531 1531 1532 1532 1533 1534 1535 1535 1536 1536 1537 1538 1538 1539 1540 1540 1541 1541 1542 1543 1543 1544 1544 1545 1546 1546 1547 1547 1548 1548 1548 1548 1549 1549 1549
1527 1528 1528 1528 1529 1529 1529 1529 1529 1530 1531 1531 1532 1533 1534 1534 1535 1535 1536 1537 1538 1539 1539 1540 1541 1542 1542 1543 1544 1544 1545 1545 1546 1547 1548 1548 1549 1549 1549 1549 1550 1550 1550
1526 1526 1526 1527 1527 1527 1527 1527 1528 1529 1529 1530 1531 1531 1532 1533 1534 1534 1535 1536 1537 1538 1539 1540 1541 1542 1542 1543 1544 1544 1545 1546 1546 1547 1548 1549 1549 1549 1550 1550 1550 1551 1551
1525 1525 1525 1525 1525 1526 1526 1526 1526 1527 1527 1528 1529 1530 1531 1531 1532 1533 1534 1535 1536 1537 1538 1539 1540 1541 1542 1543 1544 1545 1545 1546 1547 1547 1548 1549 1550 1550 1550 1551 1551 1551 1552
1524 1524 1523 1523 1524 1524 1524 1524 1525 1525 1526 1526 1527 1528 1529 1530 1531 1532 1533 1534 1535 1536 1537 1538 1539 1540 1541 1542 1543 1544 1545 1546 1547 1547 1548 1549 1550 1550 1551 1551 1552 1552 1553
1522 1523 1522 1522 1522 1522 1522 1523 1523 1523 1524 1525 1525 1526 1527 1528 1529 1530 1531 1532 1533 1534 1536 1537 1538 1539 1540 1541 1543 1544 1545 1546 1546 1547 1548 1549 1550 1550 1551 1551 1552 1552 1553
1520 1520 1521 1520 1520 1521 1521 1521 1521 1521 1522 1523 1523 1524 1525 1526 1527 1528 1529 1530 1531 1533 1534 1535 1536 1538 1539 1540 1542 1543 1544 1545 1546 1547 1548 1549 1549 1550 1551 1551 1552 1552 1553
1518 1518 1519 1519 1518 1518 1518 1519 1519 1520 1520 1520 1521 1522 1523 1524 1525 1526 1527 1528 1530 1531 1532 1534 1535 1536 1537 1539 1540 1542 1543 1544 1545 1546 1547 1548 1549 1550 1550 1551 1552 1552 1553
1516 1516 1516 1517 1516 1516 1516 1516 1517 1517 1518 1518 1519 1520 1521 1522 1522 1524 1524 1526 1527 1529 1530 1531 1533 1534 1536 1537 1539 1540 1542 1543 1544 1545 1546 1548 1548 1549 1550 1550 1551 1552 1552
1513 1513 1513 1514 1514 1514 1514 1514 1514 1515 1516 1516 1516 1517 1518 1519 1520 1521 1522 1523 1525 1527 1528 1529 1530 1532 1534 1536 1537 1539 1540 1542 1543 1544 1545 1547 1547 1548 1549 1550 1551 1551 1552
1510 1510 1511 1511 1511 1511 1511 1511 1512 1512 1513 1513 1514 1515 1516 1516 1517 1518 1519 1521 1522 1524 1526 1527 1529 1530 1531 1533 1535 1537 1539 1540 1541 1543 1544 1545 1546 1547 1548 1549 1550 1551 1551
1508 1508 1508 1508 1508 1508 1508 1508 1509 1510 1510 1511 1511 1512 1512 1513 1514 1515 1516 1518 1520 1521 1523 1525 1526 1528 1530 1531 1533 1535 1537 1538 1540 1541 1542 1543 1545 1546 1547 1548 1549 1550 1550
1505 1505 1505 1505 1505 1505 1505 1505 1506 1506 1507 1507 1508 1509 1509 1510 1511 1513 1514 1515 1517 1518 1520 1521 1523 1525 1527 1529 1531 1533 1535 1536 1538 1539 1540 1542 1543 1544 1545 1547 1548 1548 1549
1502 1502 1502 1502 1502 1502 1502 1502 1502 1503 1503 1504 1505 1505 1506 1508 1509 1510 1511 1512 1514 1515 1517 1518 1520 1522 1524 1526 1528 1531 1533 1534 1535 1537 1538 1539 1541 1542 1543 1545 1546 1547 1548
1499 1499 1499 1499 1499 1499 1499 1499 1499 1499 1500 1501 1501 1502 1503 1504 1506 1507 1508 1509 1511 1512 1514 1515 1517 1519 1521 1523 1525 1528 1530 1532 1533 1534 1536 1537 1539 1540 1541 1542 1544 1545 1546
1496 1495 1496 1496 1495 1495 1495 1495 1495 1495 1496 1497 1498 1499 1500 1501 1502 1504 1505 1506 1507 1509 1510 1512 1513 1515 1518 1520 1522 1525 1528 1530 1531 1532 1534 1535 1536 1538 1539 1540 1541 1542 1543
1492 1492 1492 1492 1492 1492 1492 1492 1492 1492 1492 1493 1494 1495 1497 1498 1499 1500 1502 1503 1504 1506 1507 1509 1510 1512 1514 1516 1518 1521 1524 1528 1528 1530 1531 1532 1534 1535 1536 1538 1539 1540 1541
1488 1489 1488 1488 1488 1488 1488 1488 1488 1489 1489 1490 1491 1492 1493 1494 1496 1497 1498 1499 1500 1502 1504 1505 1507 1508 1510 1513 1515 1517 1520 1521 1524 1526 1528 1529 1531 1532 1533 1535 1536 1537 1538
1485 1485 1485 1484 1484 1484 1484 1484 1484 1484 1484 1485 1487 1488 1490 1491 1492 1493 1494 1496 1497 1499 1500 1501 1503 1505 1507 1509 1511 1514 1516 1517 1520 1522 1525 1526 1528 1529 1530 1532 1533 1534 1535
1482 1481 1481 1480 1479 1480 1480 1480 1480 1481 1481 1482 1484 1485 1486 1487 1488 1490 1491 1492 1494 1495 1496 1498 1499 1502 1503 1505 1507 1509 1511 1514 1515 1517 1519 1522 1524 1526 1527 1528 1530 1531 1532
1478 1478 1477 1475 1475 1475 1475 1475 1476 1476 1477 1478 1479 1480 1482 1483 1484 1485 1487 1489 1490 1491 1492 1494 1496 1498 1499 1501 1503 1505 1507 1509 1511 1513 1514 1516 1519 1522 1523 1525 1526 1527 1529